Location: Miles
(41.4492°N, 81.6087°W)
Time: 09:54:13
(UTC+00:00)

Courier 1B - Pass Details

Date: 19 September 2024
Orbit: 962 x 1208 km, 28.3° (Epoch: 09 October)

Event Time Altitude Azimuth Distance (km) Brightness Sun altitude
Rises 16:45:44 0° 212° (SSW) 3,699 10.9 48.9°
Reaches altitude 10° 16:49:37 10° 190° (S) 2,794 10.7 49.1°
Maximum altitude 16:53:17 15° 157° (SSE) 2,475 10.7 49.2°
Drops below altitude 10° 16:57:04 10° 124° (SE) 2,893 10.5 49.3°
Sets 17:01:12 0° 103° (ESE) 3,908 10.8 49.4°
